• In Hungary
  • List of Countries
  • For 7 days
  • Water Temperature
  • Satellite Maps
  • Weather Map
  • News
  • Weather Widgets
  • user-avatar
    Login

    Hourly Weather Aseb

    Today, 12 December, Tuesday

    Time Temperature Precipitation Wind Pressure Humidity
    00:00 +27°C° 0 mm 9 mps 760 mmHg 56%
    01:00 +26°C° 0 mm 9 mps 760 mmHg 57%
    02:00 +26°C° 0 mm 8 mps 760 mmHg 58%
    03:00 +26°C° 0 mm 7 mps 760 mmHg 59%
    04:00 +24°C° 0 mm 7 mps 760 mmHg 60%
    05:00 +24°C° 0 mm 7 mps 760 mmHg 62%
    06:00 +24°C° 0 mm 7 mps 761 mmHg 63%
    07:00 +26°C° 0 mm 8 mps 761 mmHg 57%
    08:00 +27°C° 0 mm 9 mps 761 mmHg 52%
    09:00 +29°C° 0 mm 8 mps 761 mmHg 43%
    10:00 +31°C° 0 mm 8 mps 761 mmHg 39%
    11:00 +32°C° 0 mm 9 mps 761 mmHg 35%
    12:00 +34°C° 0 mm 9 mps 760 mmHg 32%
    13:00 +34°C° 0 mm 9 mps 760 mmHg 32%
    14:00 +34°C° 0 mm 9 mps 759 mmHg 33%
    15:00 +34°C° 0 mm 10 mps 759 mmHg 35%
    16:00 +33°C° 0 mm 10 mps 759 mmHg 39%
    17:00 +32°C° 0 mm 10 mps 759 mmHg 43%
    18:00 +29°C° 0 mm 10 mps 759 mmHg 47%
    19:00 +29°C° 0 mm 10 mps 760 mmHg 49%
    20:00 +28°C° 0 mm 10 mps 760 mmHg 50%
    21:00 +28°C° 0 mm 9 mps 760 mmHg 51%
    22:00 +27°C° 0 mm 9 mps 760 mmHg 52%
    23:00 +27°C° 0 mm 8 mps 760 mmHg 52%

    Tomorrow, 13 December, Wednesday

    Time Temperature Precipitation Wind Pressure Humidity
    00:00 +27°C° 0 mm 8 mps 760 mmHg 53%
    01:00 +26°C° 0 mm 8 mps 760 mmHg 54%
    02:00 +26°C° 0 mm 7 mps 760 mmHg 54%
    03:00 +24°C° 0 mm 7 mps 760 mmHg 55%
    04:00 +24°C° 0 mm 7 mps 760 mmHg 56%
    05:00 +24°C° 0 mm 6 mps 760 mmHg 56%
    06:00 +23°C° 0 mm 6 mps 760 mmHg 56%
    07:00 +26°C° 0 mm 7 mps 761 mmHg 49%
    08:00 +27°C° 0 mm 7 mps 761 mmHg 43%
    09:00 +29°C° 0 mm 7 mps 761 mmHg 36%
    10:00 +30°C° 0 mm 7 mps 761 mmHg 32%
    11:00 +33°C° 0 mm 7 mps 760 mmHg 28%
    12:00 +34°C° 0 mm 7 mps 760 mmHg 24%
    13:00 +35°C° 0 mm 8 mps 759 mmHg 24%
    14:00 +35°C° 0 mm 8 mps 758 mmHg 24%
    15:00 +37°C° 0 mm 8 mps 758 mmHg 24%
    16:00 +34°C° 0 mm 8 mps 758 mmHg 28%
    17:00 +33°C° 0 mm 8 mps 758 mmHg 33%
    18:00 +32°C° 0 mm 9 mps 758 mmHg 38%
    19:00 +31°C° 0 mm 8 mps 758 mmHg 40%
    20:00 +31°C° 0 mm 8 mps 758 mmHg 42%
    21:00 +29°C° 0 mm 8 mps 758 mmHg 44%
    22:00 +28°C° 0 mm 8 mps 758 mmHg 45%
    23:00 +28°C° 0 mm 8 mps 759 mmHg 46%

    Day after tomorrow, 14 December, Thursday

    Time Temperature Precipitation Wind Pressure Humidity
    00:00 +27°C° 0 mm 7 mps 759 mmHg 47%
    01:00 +27°C° 0 mm 7 mps 758 mmHg 48%
    02:00 +26°C° 0 mm 7 mps 758 mmHg 48%
    03:00 +26°C° 0 mm 7 mps 758 mmHg 49%
    04:00 +24°C° 0 mm 7 mps 758 mmHg 49%
    05:00 +24°C° 0 mm 7 mps 758 mmHg 49%
    06:00 +24°C° 0 mm 7 mps 758 mmHg 49%
    07:00 +26°C° 0 mm 7 mps 759 mmHg 43%
    08:00 +28°C° 0 mm 8 mps 759 mmHg 38%
    09:00 +29°C° 0 mm 8 mps 760 mmHg 32%
    10:00 +32°C° 0 mm 9 mps 759 mmHg 28%
    11:00 +34°C° 0 mm 9 mps 759 mmHg 24%
    12:00 +35°C° 0 mm 9 mps 758 mmHg 21%
    13:00 +35°C° 0 mm 9 mps 758 mmHg 21%
    14:00 +35°C° 0 mm 9 mps 757 mmHg 21%
    15:00 +35°C° 0 mm 9 mps 756 mmHg 21%
    16:00 +34°C° 0 mm 10 mps 756 mmHg 25%
    17:00 +33°C° 0 mm 10 mps 756 mmHg 29%
    18:00 +31°C° 0 mm 10 mps 756 mmHg 33%
    19:00 +29°C° 0 mm 10 mps 757 mmHg 36%
    20:00 +29°C° 0 mm 10 mps 757 mmHg 39%
    21:00 +28°C° 0 mm 9 mps 758 mmHg 42%
    22:00 +27°C° 0 mm 9 mps 758 mmHg 46%
    23:00 +27°C° 0 mm 9 mps 758 mmHg 49%

    15 December, Friday

    Time Temperature Precipitation Wind Pressure Humidity
    00:00 +26°C° 0 mm 9 mps 758 mmHg 53%
    01:00 +26°C° 0 mm 9 mps 757 mmHg 56%
    02:00 +24°C° 0 mm 8 mps 757 mmHg 59%
    03:00 +24°C° 0 mm 8 mps 756 mmHg 62%
    04:00 +24°C° 0 mm 8 mps 757 mmHg 65%
    05:00 +23°C° 0 mm 8 mps 757 mmHg 68%
    06:00 +23°C° 0 mm 8 mps 757 mmHg 70%
    07:00 +24°C° 0 mm 9 mps 758 mmHg 64%
    08:00 +27°C° 0 mm 9 mps 758 mmHg 58%
    09:00 +28°C° 0 mm 10 mps 759 mmHg 52%
    10:00 +29°C° 0 mm 10 mps 759 mmHg 47%
    11:00 +32°C° 0 mm 10 mps 758 mmHg 42%
    12:00 +33°C° 0 mm 10 mps 758 mmHg 38%
    13:00 +33°C° 0 mm 10 mps 757 mmHg 38%
    14:00 +34°C° 0 mm 10 mps 756 mmHg 38%
    15:00 +34°C° 0 mm 10 mps 756 mmHg 39%
    16:00 +32°C° 0 mm 10 mps 756 mmHg 45%
    17:00 +31°C° 0 mm 10 mps 756 mmHg 51%
    18:00 +29°C° 0 mm 9 mps 756 mmHg 57%
    19:00 +28°C° 0 mm 9 mps 757 mmHg 61%
    20:00 +28°C° 0 mm 9 mps 757 mmHg 64%
    21:00 +27°C° 0 mm 9 mps 758 mmHg 68%
    22:00 +27°C° 0 mm 8 mps 758 mmHg 70%
    23:00 +27°C° 0 mm 8 mps 758 mmHg 72%

    16 December, Saturday

    Time Temperature Precipitation Wind Pressure Humidity
    00:00 +26°C° 0 mm 8 mps 758 mmHg 75%
    01:00 +26°C° 0 mm 8 mps 757 mmHg 77%
    02:00 +26°C° 0 mm 8 mps 757 mmHg 79%
    03:00 +24°C° 0 mm 8 mps 757 mmHg 81%
    04:00 +24°C° 0 mm 8 mps 757 mmHg 82%
    05:00 +24°C° 0 mm 8 mps 757 mmHg 83%
    06:00 +24°C° 0 mm 8 mps 758 mmHg 85%
    07:00 +26°C° 0 mm 8 mps 758 mmHg 78%
    08:00 +27°C° 0 mm 8 mps 759 mmHg 72%
    09:00 +28°C° 0 mm 8 mps 759 mmHg 66%
    10:00 +29°C° 0 mm 8 mps 759 mmHg 60%
    11:00 +32°C° 0 mm 8 mps 758 mmHg 54%
    12:00 +33°C° 0 mm 7 mps 758 mmHg 49%
    13:00 +33°C° 0 mm 8 mps 757 mmHg 48%
    14:00 +33°C° 0 mm 8 mps 757 mmHg 48%
    15:00 +34°C° 0 mm 8 mps 756 mmHg 47%
    16:00 +33°C° 0 mm 8 mps 756 mmHg 53%
    17:00 +31°C° 0 mm 8 mps 756 mmHg 59%
    18:00 +29°C° 0 mm 7 mps 757 mmHg 65%
    19:00 +29°C° 0 mm 7 mps 757 mmHg 67%
    20:00 +28°C° 0 mm 7 mps 758 mmHg 69%
    21:00 +28°C° 0 mm 6 mps 758 mmHg 71%
    22:00 +27°C° 0 mm 7 mps 758 mmHg 73%
    23:00 +27°C° 0 mm 7 mps 758 mmHg 75%

    17 December, Sunday

    Time Temperature Precipitation Wind Pressure Humidity
    00:00 +27°C° 0 mm 7 mps 758 mmHg 76%
    01:00 +27°C° 0 mm 7 mps 758 mmHg 78%
    02:00 +26°C° 0 mm 7 mps 757 mmHg 79%
    03:00 +26°C° 0 mm 7 mps 757 mmHg 81%
    04:00 +26°C° 0 mm 7 mps 758 mmHg 82%
    05:00 +26°C° 0 mm 7 mps 758 mmHg 83%
    06:00 +26°C° 0 mm 7 mps 758 mmHg 83%
    07:00 +27°C° 0 mm 7 mps 759 mmHg 78%
    08:00 +28°C° 0 mm 8 mps 759 mmHg 72%
    09:00 +29°C° 0 mm 8 mps 760 mmHg 67%
    10:00 +31°C° 0 mm 8 mps 759 mmHg 62%
    11:00 +32°C° 0 mm 8 mps 759 mmHg 56%
    12:00 +33°C° 0 mm 8 mps 758 mmHg 51%
    13:00 +33°C° 0 mm 9 mps 758 mmHg 51%
    14:00 +33°C° 0 mm 9 mps 757 mmHg 52%
    15:00 +33°C° 0 mm 9 mps 756 mmHg 52%
    16:00 +32°C° 0 mm 9 mps 757 mmHg 56%
    17:00 +31°C° 0 mm 9 mps 757 mmHg 60%
    18:00 +29°C° 0 mm 9 mps 757 mmHg 64%
    19:00 +29°C° 0 mm 9 mps 758 mmHg 65%
    20:00 +28°C° 0 mm 9 mps 758 mmHg 67%
    21:00 +28°C° 0 mm 9 mps 759 mmHg 68%
    22:00 +28°C° 0 mm 9 mps 759 mmHg 69%
    23:00 +28°C° 0 mm 9 mps 759 mmHg 71%
    Show more